Regional Weather Roundup
Issued by NWS

Home | Current Version | Previous Version | Text Only | Print | Product List | Glossary On
Versions: 1 2 3 4 5 6 7 8 9 10 11 12 13 14 15 16 17 18 19 20 21 22 23 24 25 26 27 28 29 30 31 32 33 34 35 36 37 38 39 40 41 42 43 44 45 46 47 48 49 50
000
ASCA42 TJSJ 270810
RWRPR
PUERTO RICO/U.S. VIRGIN ISLANDS HOURLY WEATHER ROUNDUP
NATIONAL WEATHER SERVICE SAN JUAN PR
400 AM AST FRI FEB 27 2015

PRZ001-004-270900-
PUERTO RICO

CITY           SKY/WX    TMP DP  RH WIND       PRES   REMARKS
SAN JUAN LMM   PTCLDY    73  70  88 E3        30.05F
PONCE          PTCLDY    75  66  73 NE6       30.01S
CEIBA          PTCLDY    77  68  73 E8G17     30.08S
$$

PRZ006-007-270900-
U.S. VIRGIN ISLANDS

CITY           SKY/WX    TMP DP  RH WIND       PRES   REMARKS
$$

HOURLY WEATHER ROUNDUP FOR THE NEWS MEDIA

CITY           SKY/WX    TMP DP  RH WIND       PRES   REMARKS
ORLANDO        CLOUDY    55  47  74 N12       30.07S
NEW YORK       MOCLDY    22   6  50 N7        30.23R WCI  13
NEWARK         MOCLDY    20  10  65 NE3       30.22R
CHICAGO        CLEAR      0  -8  69 NW8       30.44R WCI -14
HARTFORD       FAIR       7   4  87 CALM      30.16R
BOSTON         PTCLDY    17   0  47 NW13      30.18R WCI   4
DALLAS         MOCLDY    30  10  43 NE14      30.44S WCI  20
PHILADELPHIA   CLOUDY    26  16  65 N6        30.22R WCI  19
LOS ANGELES    PTCLDY    57  53  86 CALM      29.84F
WASHINGTON DC  MOCLDY    29  24  82 CALM      30.19R


USA.gov is the U.S. government's official web portal to all federal, state and local government web resources and services.